EIN991 EINN-EIDW

Flight info

Callsign EIN991
Flight time N/A
Altitude 15000
Route AGINI3B AGINI DCT OSGAR OSGAR4L
Aircraft A21N/M-SDE2E3FGHIRWXY/LB1

Departure

Time 2026-05-01 15:04
Airport Shannon Airport (EINN)

Arrival

Time N/A
Airport Dublin Airport (EIDW)
Time Latitude Longitude Altitude Speed Heading
2026-05-01 14:42 52.69366 -8.91869 28 ft 0 kts 225°
2026-05-01 14:56 52.69376 -8.91853 28 ft 4 kts 218°
2026-05-01 14:56 52.69395 -8.91837 28 ft 2 kts 195°
2026-05-01 14:56 52.69419 -8.91832 28 ft 4 kts 167°
2026-05-01 14:57 52.69439 -8.91851 28 ft 4 kts 119°
2026-05-01 14:57 52.69443 -8.91865 28 ft 0 kts 108°
2026-05-01 14:59 52.69443 -8.91864 28 ft 1 kts 108°
2026-05-01 14:59 52.69436 -8.91835 28 ft 5 kts 113°
2026-05-01 14:59 52.69406 -8.91776 28 ft 9 kts 150°
2026-05-01 14:59 52.69333 -8.91725 28 ft 14 kts 145°
2026-05-01 15:00 52.69357 -8.91472 28 ft 20 kts 17°
2026-05-01 15:00 52.69501 -8.91394 28 ft 23 kts 18°
2026-05-01 15:00 52.69663 -8.91305 28 ft 26 kts 18°
2026-05-01 15:01 52.69841 -8.91205 28 ft 28 kts 19°
2026-05-01 15:01 52.70038 -8.91095 28 ft 31 kts 18°
2026-05-01 15:01 52.70244 -8.90984 28 ft 33 kts 18°
2026-05-01 15:01 52.70458 -8.90866 28 ft 25 kts 19°
2026-05-01 15:02 52.70629 -8.90770 28 ft 27 kts 18°
2026-05-01 15:02 52.70753 -8.90701 28 ft 29 kts 19°
2026-05-01 15:02 52.70957 -8.90748 28 ft 19 kts 327°
2026-05-01 15:02 52.70965 -8.90863 28 ft 0 kts 234°
2026-05-01 15:03 52.70957 -8.90879 29 ft 4 kts 233°
2026-05-01 15:03 52.70920 -8.90964 29 ft 30 kts 233°
2026-05-01 15:03 52.70579 -8.91679 32 ft 124 kts 232°
2026-05-01 15:03 52.69933 -8.93087 321 ft 169 kts 229°
2026-05-01 15:04 52.69205 -8.94648 1170 ft 182 kts 229°
2026-05-01 15:04 52.68655 -8.96551 2392 ft 194 kts 258°
2026-05-01 15:04 52.69007 -8.98727 3681 ft 205 kts 298°
2026-05-01 15:04 52.69830 -9.00637 5076 ft 205 kts 298°
2026-05-01 15:05 52.70532 -9.02717 6479 ft 212 kts 292°
2026-05-01 15:05 52.71176 -9.04944 7900 ft 217 kts 290°
2026-05-01 15:05 52.71885 -9.07143 9382 ft 224 kts 304°
2026-05-01 15:05 52.73153 -9.08689 10782 ft 236 kts 337°
2026-05-01 15:06 52.74915 -9.09035 11495 ft 278 kts
2026-05-01 15:06 52.76837 -9.07954 12193 ft 308 kts 25°
2026-05-01 15:06 52.78845 -9.06456 13201 ft 324 kts 25°
2026-05-01 15:06 52.80960 -9.04973 14378 ft 336 kts 23°
2026-05-01 15:07 52.83162 -9.03532 15248 ft 344 kts 22°
2026-05-01 15:07 52.85413 -9.02115 15725 ft 348 kts 21°
2026-05-01 15:07 52.87689 -9.00709 15952 ft 350 kts 21°
2026-05-01 15:07 52.89983 -8.99307 16047 ft 361 kts 21°
2026-05-01 15:08 52.92481 -8.97777 16103 ft 403 kts 21°
2026-05-01 15:08 52.95211 -8.96021 16105 ft 438 kts 25°
2026-05-01 15:08 52.97840 -8.93260 16093 ft 455 kts 42°
2026-05-01 15:08 52.99964 -8.89417 16088 ft 450 kts 57°
2026-05-01 15:09 53.01740 -8.85147 16086 ft 449 kts 58°
2026-05-01 15:09 53.03596 -8.80975 16076 ft 450 kts 55°
2026-05-01 15:09 53.05581 -8.76935 16068 ft 451 kts 53°
2026-05-01 15:09 53.07622 -8.72972 16063 ft 451 kts 52°
2026-05-01 15:10 53.09685 -8.69035 16067 ft 452 kts 52°
2026-05-01 15:10 53.13819 -8.61177 16065 ft 451 kts 52°
2026-05-01 15:10 53.15659 -8.56994 16044 ft 446 kts 64°
2026-05-01 15:11 53.16774 -8.52238 16058 ft 438 kts 81°
2026-05-01 15:11 53.16531 -8.42451 16073 ft 419 kts 113°
2026-05-01 15:11 53.15310 -8.38102 16082 ft 413 kts 123°
2026-05-01 15:12 53.14086 -8.33774 16075 ft 417 kts 115°
2026-05-01 15:12 53.12910 -8.24211 16076 ft 425 kts 102°
2026-05-01 15:12 53.12539 -8.19337 16075 ft 425 kts 102°
2026-05-01 15:13 53.11407 -8.04720 16082 ft 424 kts 102°
2026-05-01 15:14 53.10626 -7.94982 16084 ft 425 kts 102°
2026-05-01 15:14 53.10231 -7.90105 16085 ft 424 kts 102°
2026-05-01 15:14 53.09437 -7.80376 16087 ft 424 kts 102°
2026-05-01 15:15 53.08640 -7.70719 16083 ft 424 kts 102°
2026-05-01 15:15 53.07830 -7.61007 16084 ft 424 kts 102°
2026-05-01 15:16 53.07011 -7.51289 16094 ft 424 kts 103°
2026-05-01 15:16 53.06187 -7.41586 16094 ft 424 kts 103°
2026-05-01 15:17 53.05354 -7.31896 16092 ft 424 kts 103°
2026-05-01 15:18 53.04208 -7.17287 16093 ft 425 kts 102°
2026-05-01 15:18 53.03842 -7.12412 16102 ft 425 kts 102°
2026-05-01 15:19 53.02730 -6.97787 16104 ft 426 kts 102°
2026-05-01 15:19 53.01979 -6.88040 16100 ft 426 kts 102°
2026-05-01 15:19 53.01601 -6.83159 16105 ft 426 kts 102°
2026-05-01 15:20 53.00904 -6.73369 16107 ft 430 kts 97°
2026-05-01 15:20 53.01159 -6.68394 16104 ft 438 kts 82°
2026-05-01 15:20 53.02201 -6.63618 16086 ft 442 kts 66°
2026-05-01 15:21 53.03923 -6.59440 15724 ft 443 kts 51°
2026-05-01 15:21 53.06068 -6.55767 15434 ft 442 kts 47°
2026-05-01 15:21 53.08230 -6.52154 15044 ft 436 kts 48°
2026-05-01 15:21 53.10320 -6.48592 14491 ft 427 kts 48°
2026-05-01 15:22 53.14342 -6.41582 12958 ft 417 kts 50°
2026-05-01 15:22 53.16055 -6.37707 12292 ft 409 kts 64°
2026-05-01 15:22 53.16986 -6.33405 11840 ft 384 kts 83°
2026-05-01 15:23 53.17084 -6.29131 11539 ft 357 kts 99°
2026-05-01 15:23 53.16761 -6.25137 11293 ft 338 kts 103°
2026-05-01 15:23 53.16451 -6.21344 11058 ft 324 kts 102°
2026-05-01 15:23 53.16196 -6.17692 10848 ft 311 kts 101°
2026-05-01 15:24 53.15983 -6.14188 10664 ft 298 kts 101°
2026-05-01 15:24 53.15787 -6.10788 10275 ft 294 kts 101°
2026-05-01 15:24 53.15596 -6.07400 9792 ft 293 kts 100°
2026-05-01 15:24 53.15410 -6.04020 9309 ft 292 kts 100°
2026-05-01 15:25 53.15228 -6.00674 8881 ft 289 kts 99°
2026-05-01 15:25 53.15051 -5.97402 8488 ft 285 kts 99°
2026-05-01 15:25 53.14872 -5.94086 8120 ft 284 kts 99°
2026-05-01 15:25 53.14692 -5.90805 7791 ft 283 kts 99°
2026-05-01 15:26 53.14518 -5.87593 7585 ft 273 kts 99°
2026-05-01 15:26 53.14349 -5.84507 7444 ft 262 kts 99°
2026-05-01 15:26 53.14233 -5.81544 7310 ft 253 kts 92°
2026-05-01 15:26 53.14698 -5.78739 7140 ft 257 kts 66°
2026-05-01 15:27 53.15582 -5.76145 7099 ft 258 kts 63°
2026-05-01 15:27 53.16491 -5.73567 7106 ft 258 kts 63°
2026-05-01 15:27 53.17385 -5.71033 7123 ft 258 kts 63°
2026-05-01 15:28 53.19176 -5.65853 7127 ft 258 kts 64°
2026-05-01 15:28 53.20258 -5.63461 7124 ft 262 kts 44°
2026-05-01 15:28 53.21714 -5.61603 7130 ft 264 kts 38°
2026-05-01 15:29 53.24686 -5.58020 7141 ft 264 kts 38°
2026-05-01 15:29 53.26167 -5.56213 7140 ft 263 kts 38°
2026-05-01 15:29 53.29183 -5.52761 7118 ft 264 kts 24°
2026-05-01 15:30 53.32761 -5.51288 7134 ft 265 kts 12°
2026-05-01 15:31 53.39958 -5.48777 7122 ft 264 kts
2026-05-01 15:31 53.43561 -5.49707 7131 ft 262 kts 346°
2026-05-01 15:32 53.47130 -5.50970 7132 ft 262 kts 346°
2026-05-01 15:32 53.50701 -5.52229 7126 ft 262 kts 343°
2026-05-01 15:33 53.55223 -5.57031 7120 ft 257 kts 320°
2026-05-01 15:34 53.58566 -5.63469 7113 ft 241 kts 270°